Location: Dehesa de la Cepeda
(40.6574°N, 4.3013°W)
Time: 20:05:01
(UTC+00:00)

Explorer 7 - Pass Details

Date: 09 August 2021
Orbit: 484 x 676 km, 50.3° (Epoch: 17 September)

Event Time Altitude Azimuth Distance (km) Brightness Sun altitude
Exits shadow 04:08:46 - 291° (WNW) 1,844 9.2 -13.0°
Reaches altitude 10° 04:09:19 10° 295° (WNW) 1,669 9.0 -13.0°
Maximum altitude 04:12:18 22° 348° (NNW) 1,115 8.6 -12.5°
Drops below altitude 10° 04:15:22 10° 41° (NE) 1,708 10.7 -12.0°
Sets 04:17:58 0° 57° (ENE) 2,621 12.5 -11.6°
